Lid_Strength_Index
9 9 11 12 12 12 12 12 13 12 12 13 11 12 11 10 10 10 9 9 9 9 8 8 8 6 5 5 5 5 5 5 5 6 6 6 6 6 6 6 7 7 8 8
9 12 12 11 11 11 11 12 12 12 12 13 13 13 11 11 11 10 10 10 10 9 9 8 8 7 6 5 5 5 6 6 6 6 6 5 6 6 6 7 7 7 8 8
10 11 11 11 11 12 12 13 13 14 12 13 13 12 12 11 10 10 10 9 9 9 9 9 8 8 6 6 5 5 5 5 6 6 6 7 7 7 8 8 8 8 8 8
11 10 11 11 13 12 13 12 13 14 12 14 12 14 12 11 11 11 10 10 10 9 8 8 8 7 6 5 4 5 5 5 5 6 7 7 7 7 6 7 6 7 7 8
13 12 12 12 13 12 13 12 13 13 13 13 13 14 11 10 11 10 10 9 8 8 7 7 6 6 5 4 4 4 4 4 5 5 5 5 6 6 6 6 6 6 6 7
12 11 11 12 12 12 12 13 13 12 13 17 17 15 13 11 12 11 10 9 9 8 7 7 6 5 5 4 4 4 4 5 5 4 4 5 5 5 5 5 6 5 5 6
12 12 11 11 12 11 13 13 16 17 18 16 18 16 12 12 11 10 10 10 9 8 7 7 7 7 6 6 5 5 5 5 5 4 4 4 5 5 5 5 5 5 5 6
14 15 12 12 12 14 13 13 15 17 16 15 18 16 12 11 10 10 9 9 9 8 8 8 7 7 7 7 6 6 6 6 5 5 5 5 5 5 5 5 5 5 5 5
14 14 13 13 12 12 13 13 14 16 21 16 13 13 12 11 11 11 11 10 10 9 8 8 8 7 7 7 7 7 7 7 6 6 5 6 5 5 6 5 5 5 5 6
13 14 14 13 12 13 13 13 14 13 18 18 15 15 13 14 14 12 12 12 11 10 9 8 8 8 8 8 7 7 7 7 7 6 6 6 6 6 6 6 6 6 6 6
12 12 15 14 14 13 15 14 15 14 15 16 17 14 13 12 13 13 13 12 12 11 10 9 9 8 8 8 8 8 8 7 7 7 7 6 6 6 6 6 6 6 6 7
11 12 14 13 13 13 13 13 13 15 16 16 17 15 12 12 13 13 13 13 12 11 10 10 9 9 9 9 9 9 8 8 8 7 7 7 7 7 7 7 7 7 7 7
11 13 15 15 15 14 15 13 13 15 14 16 16 14 14 14 14 14 13 13 12 11 11 10 10 10 9 10 10 9 9 9 8 8 8 8 8 8 8 7 7 7 7 8
11 14 15 15 15 14 16 14 14 14 16 15 15 13 16 15 14 14 13 12 12 12 12 11 11 10 10 11 11 10 10 9 9 9 9 9 9 9 8 8 8 7 7 8
11 15 15 14 14 16 16 15 15 16 15 15 15 14 12 12 13 14 14 12 12 12 11 11 11 11 11 11 11 11 10 10 10 10 10 10 9 9 9 9 8 8 8 8
12 15 17 17 15 16 18 16 15 16 15 15 15 16 11 14 15 14 13 12 12 12 11 11 11 11 11 11 11 11 11 11 10 11 11 10 10 11 11 10 10 9 9 9
14 15 17 18 19 20 20 17 16 15 14 15 17 14 14 15 15 14 12 12 12 11 11 12 12 12 11 11 11 11 11 10 11 11 11 11 11 12 12 11 11 11 10 9
15 16 16 18 19 22 16 15 15 15 13 12 13 15 15 15 13 13 12 12 12 12 12 12 12 12 11 11 11 11 11 11 11 11 11 10 11 11 12 12 12 11 10 10
12 13 16 18 18 16 15 13 15 16 14 12 13 13 14 13 13 13 11 11 11 11 11 11 11 11 11 11 10 11 11 11 11 11 11 10 10 11 12 13 13 12 11 11
15 13 15 18 20 20 16 14 12 13 18 12 13 14 14 14 17 13 11 11 11 11 10 10 10 10 10 10 9 10 11 11 11 11 10 10 10 10 12 12 13 12 11 11
17 16 17 16 18 16 12 13 12 19 17 14 13 13 14 15 13 12 11 12 11 11 11 10 10 11 10 10 10 11 11 11 11 10 10 10 10 10 10 11 11 11 11 10
17 18 18 16 18 20 12 14 16 13 12 13 13 13 13 12 12 12 12 12 12 12 11 11 11 11 10 10 10 11 11 10 10 10 10 10 10 8 7 9 10 10 10 10
18 14 15 14 15 12 11 11 11 11 12 12 12 12 12 12 12 12 12 12 11 11 11 11 11 11 10 10 10 11 11 10 10 10 10 10 9 8 7 8 9 9 9 9
16 14 16 15 12 12 11 11 11 11 12 11 11 11 11 12 12 12 12 12 11 11 11 11 12 12 12 10 10 10 10 10 10 10 10 10 10 8 6 8 8 8 9 9
14 15 14 15 13 12 12 11 11 11 10 10 10 11 11 11 12 12 12 11 11 11 11 11 12 12 12 10 10 9 9 9 10 11 11 11 10 8 7 7 8 8 8 8
13 14 15 16 12 12 12 10 9 11 11 10 11 12 11 11 12 11 12 11 11 11 11 11 11 11 11 10 10 9 9 10 11 12 12 12 11 8 7 8 8 7 7 8